AirNav   TITAN Aviation Fuels
 
 647 users online  

X10 Belle Glade State Municipal Airport
Belle Glade, Florida, USA

GOING TO BELLE GLADE?


FAA INFORMATION EFFECTIVE 04 NOVEMBER 2021

Location

FAA Identifier: X10
Lat/Long: 26-41-53.4800N 080-39-36.8800W
26-41.891333N 080-39.614667W
26.6981889,-80.6602444
(estimated)
Elevation: 14 ft. / 4 m (estimated)
Variation: 03W (1985)
From city: 1 mile NE of BELLE GLADE, FL
Time zone: UTC -4 (UTC -5 during Standard Time)
Zip code: 33430

Airport Operations

Airport use: Open to the public
Activation date: 04/1940
Control tower: no
ARTCC: MIAMI CENTER
FSS: MIAMI FLIGHT SERVICE STATION
NOTAMs facility: MIA (NOTAM-D service available)
Attendance: UNATNDD
Wind indicator: lighted, WIND SOCK TORN OFF
Segmented circle: no
Lights: ACTVT LIRL RWY 09/27 -CTAF.

Airport Communications

CTAF: 122.9

Nearby radio navigation aids

VOR radial/distance  VOR name  Freq  Var
PHKr162/5.3PAHOKEE VOR/DME115.4000E
PBIr275/30.8PALM BEACH VORTAC115.7003W
LBVr100/39.9LA BELLE VORTAC110.4001E

 
NDB name  Hdg/Dist  Freq  Var  ID
UNITED239/21.540505WUTX ..- - -..-

Airport Services

Airframe service: NONE
Powerplant service: NONE
Bottled oxygen: NONE
Bulk oxygen: NONE

Runway Information

Runway 9/27

Dimensions: 3455 x 50 ft. / 1053 x 15 m
Surface: asphalt, in excellent condition
Weight bearing capacity: 
PCN 13 /F/A/X/T
Runway edge lights: low intensity
RUNWAY 9  RUNWAY 27
Latitude: 26-41.891000N26-41.891667N
Longitude: 080-39.932167W080-39.297167W
Elevation: 14.0 ft.11.0 ft.
Traffic pattern: leftleft
Runway heading: 093 magnetic, 090 true273 magnetic, 270 true
Declared distances: TORA:3750 TODA:3750TORA:3750 TODA:3750
Markings: basic, in good conditionbasic, in good condition
Obstructions: 36 ft. tree, 915 ft. from runway, 20 ft. left of centerline, 20:1 slope to clear50 ft. pole, 1342 ft. from runway, 20 ft. left of centerline, 23:1 slope to clear

Airport Ownership and Management from official FAA records

Ownership: Publicly-owned
Owner: CITY OF BELLE GLADE
110 DR. MARTIN LUTHER KING JR. BLVD
BELLE GLADE, FL 33430-3900
Phone 561-996-0100
CONTACT PERSON: LOMAX HARRELLE 561-992-1601
Manager: LARRY TIBBS
110 DR. MARTIN LUTHER KING JR. BLVD
BELLE GLADE, FL 33430
Phone (561) 992-1610

Airport Operational Statistics

Aircraft based on the field: 5
Single engine airplanes: 5
    
Aircraft operations: avg 34/week *
67% local general aviation
33% transient general aviation
* for 12-month period ending 12 January 2018

Additional Remarks

RY 09 NIGHT LNDGS NOT ADVISED DUE TO UNLGTD POWER LINES IN APCH.
BERM FULL LENGTH OF RY 113 FT N OF CNTRLN, RY 09/27.
FOR CD CTC PALM BEACH APCH AT 561-275-1430

Instrument Procedures

There are no published instrument procedures at X10.

Some nearby airports with instrument procedures:

KPHK - Palm Beach County Glades Airport (6 nm N)
2IS - Airglades Airport (21 nm W)
06FA - William P Gwinn Airport (22 nm NE)
F45 - North Palm Beach County General Aviation Airport (25 nm E)
KPBI - Palm Beach International Airport (30 nm E)
 
Loc | Ops | Rwys | IFR | FBO | Links
Com | Nav | Svcs | Stats | Notes

Reliance Aviation
AirBoss

 
Area around X10 (Belle Glade State Municipal Airport)
 
Road maps at: MapQuest Bing Google
 
Aerial photo
WARNING: Photo may not be current or correct
Aerial photo of X10 (Belle Glade State Municipal Airport)
Do you have a better or more recent aerial photo of Belle Glade State Municipal Airport that you would like to share? If so, please send us your photo.

 
Sectional chart

 
Airport distance calculator
Flying to Belle Glade State Municipal Airport? Find the distance to fly.

From to X10

Sunrise and sunset
Times for 01-Dec-2021
 Local
(UTC-5)
 Zulu
(UTC)
Morning civil twilight06:3011:30
Sunrise06:5511:55
Sunset17:2822:28
Evening civil twilight17:5322:53

Current date and time
Zulu (UTC)  01-Dec-2021 06:30:36
Local (UTC-5)  01-Dec-2021 01:30:36
 
METAR
K2IS 
21nm W 
010615Z AUTO 01004KT 10SM CLR 13/13 A3016 RMK AO2 T01320127
KF45 
25nm E 
010605Z AUTO 01004KT A3016 RMK AO2
KPBI 
30nm E 
010553Z 33003KT 10SM FEW040 16/14 A3015 RMK AO2 SLP208 T01610144 10211 20156 58010 $
KLNA 
31nm E 
010615Z AUTO 33004KT 10SM SCT041 17/15 A3015 RMK AO2 T01700150 PNO
KOBE 
35nm N 
010615Z AUTO 00000KT 2 1/2SM BR CLR 12/12 A3016 RMK AO2 VIS 2V3
KBCT 
36nm SE 
010247Z 11005KT 10SM CLR 19/14 A3017
KSUA 
38nm NE 
010615Z AUTO 32004KT 10SM 15/13 A3017 RMK AO2
KFXE 
39nm SE 
010553Z AUTO 00000KT 10SM CLR 17/15 A3014 RMK AO2 SLP207 T01720150 10206 20167 58010 TSNO
KPMP 
40nm SE 
010553Z AUTO 06007KT 10SM CLR 21/12 A3013 RMK AO2 SLP205 T02110122 10222 20211 58010 $
TAF
KPBI 
30nm E 
010237Z 0103/0124 VRB05KT P6SM FEW040 FM011500 10008KT P6SM SCT035 FM012300 VRB04KT P6SM FEW050
KSUA 
38nm NE 
301735Z 3018/0118 01008KT P6SM SKC FM010000 VRB03KT P6SM FEW030 FEW300 FM011500 14005KT P6SM SCT030 AMD NOT SKED
NOTAMs
Click for the latest NOTAMs
NOTAMs are issued by the DoD/FAA and will open in a separate window not controlled by AirNav.

 

 
 

Would you like to see your business listed on this page?

 If your business provides an interesting product or service to pilots, flight crews, aircraft, or users of the Belle Glade State Municipal Airport, you should consider listing it here.  To start the listing process, click on the button below
 
Add a business
 

Other Pages about Belle Glade State Municipal Airport

Update a link
 
Copyright © AirNav, LLC. All rights reserved. Privacy Policy  Contact